EN

Hourly Weather Lagernyy

Today, 26 July, Monday

Time Temperature Precipitation Wind Pressure Humidity
00:00 +26°C° 0 mm 4 mps 757 mmHg 36%
01:00 +25°C° 0 mm 4 mps 757 mmHg 39%
02:00 +25°C° 0 mm 3 mps 757 mmHg 41%
03:00 +25°C° 0 mm 3 mps 757 mmHg 43%
04:00 +25°C° 0 mm 3 mps 757 mmHg 43%
05:00 +25°C° 0 mm 3 mps 757 mmHg 44%
06:00 +25°C° 0 mm 3 mps 757 mmHg 44%
07:00 +27°C° 0 mm 4 mps 757 mmHg 39%
08:00 +29°C° 0 mm 4 mps 757 mmHg 34%
09:00 +33°C° 0 mm 4 mps 757 mmHg 29%
10:00 +34°C° 0 mm 4 mps 757 mmHg 26%
11:00 +35°C° 0 mm 4 mps 757 mmHg 23%
12:00 +37°C° 0 mm 5 mps 757 mmHg 20%
13:00 +37°C° 0 mm 5 mps 757 mmHg 20%
14:00 +37°C° 0 mm 5 mps 756 mmHg 20%
15:00 +37°C° 0 mm 5 mps 756 mmHg 20%
16:00 +36°C° 0 mm 5 mps 756 mmHg 22%
17:00 +36°C° 0 mm 4 mps 756 mmHg 24%
18:00 +35°C° 0 mm 4 mps 756 mmHg 26%
19:00 +34°C° 0 mm 4 mps 756 mmHg 27%
20:00 +31°C° 0 mm 3 mps 756 mmHg 29%
21:00 +30°C° 0 mm 3 mps 756 mmHg 31%
22:00 +30°C° 0 mm 5 mps 756 mmHg 30%
23:00 +30°C° 0 mm 6 mps 757 mmHg 29%

Tomorrow, 27 July, Tuesday

Time Temperature Precipitation Wind Pressure Humidity
00:00 +30°C° 0 mm 7 mps 757 mmHg 29%
01:00 +29°C° 0 mm 6 mps 757 mmHg 30%
02:00 +29°C° 0 mm 6 mps 757 mmHg 31%
03:00 +28°C° 0 mm 5 mps 757 mmHg 32%
04:00 +27°C° 0 mm 5 mps 757 mmHg 33%
05:00 +26°C° 0 mm 5 mps 758 mmHg 35%
06:00 +25°C° 0 mm 5 mps 758 mmHg 36%
07:00 +26°C° 0 mm 5 mps 758 mmHg 34%
08:00 +28°C° 0 mm 5 mps 758 mmHg 31%
09:00 +29°C° 0 mm 6 mps 758 mmHg 29%
10:00 +29°C° 0 mm 5 mps 758 mmHg 29%
11:00 +30°C° 0 mm 4 mps 758 mmHg 29%
12:00 +30°C° 0 mm 3 mps 758 mmHg 28%
13:00 +30°C° 0 mm 3 mps 758 mmHg 28%
14:00 +31°C° 0 mm 3 mps 758 mmHg 28%
15:00 +33°C° 0 mm 3 mps 757 mmHg 27%
16:00 +30°C° 0 mm 3 mps 757 mmHg 33%
17:00 +29°C° 0 mm 4 mps 758 mmHg 39%
18:00 +28°C° 0 mm 4 mps 758 mmHg 45%
19:00 +27°C° 0 mm 4 mps 758 mmHg 49%
20:00 +25°C° 0 mm 3 mps 758 mmHg 54%
21:00 +24°C° 0 mm 3 mps 758 mmHg 59%
22:00 +23°C° 0 mm 2 mps 758 mmHg 60%
23:00 +21°C° 0 mm 2 mps 758 mmHg 62%

Day after tomorrow, 28 July, Wednesday

Time Temperature Precipitation Wind Pressure Humidity
00:00 +21°C° 0 mm 2 mps 758 mmHg 64%
01:00 +20°C° 0 mm 2 mps 758 mmHg 66%
02:00 +20°C° 0 mm 2 mps 758 mmHg 69%
03:00 +19°C° 0 mm 2 mps 758 mmHg 72%
04:00 +19°C° 0 mm 2 mps 758 mmHg 70%
05:00 +21°C° 0 mm 1 mps 758 mmHg 68%
06:00 +21°C° 0 mm 1 mps 758 mmHg 65%
07:00 +23°C° 0 mm 1 mps 758 mmHg 56%
08:00 +26°C° 0 mm 1 mps 758 mmHg 46%
09:00 +28°C° 0 mm 1 mps 758 mmHg 36%
10:00 +29°C° 0 mm 2 mps 758 mmHg 32%
11:00 +31°C° 0 mm 2 mps 757 mmHg 28%
12:00 +33°C° 0 mm 3 mps 757 mmHg 24%
13:00 +34°C° 0 mm 3 mps 757 mmHg 23%
14:00 +34°C° 0 mm 3 mps 756 mmHg 22%
15:00 +35°C° 0 mm 3 mps 756 mmHg 21%
16:00 +34°C° 0 mm 3 mps 756 mmHg 22%
17:00 +34°C° 0 mm 3 mps 756 mmHg 24%
18:00 +33°C° 0 mm 3 mps 756 mmHg 25%
19:00 +30°C° 0 mm 3 mps 756 mmHg 27%
20:00 +28°C° 0 mm 2 mps 756 mmHg 30%
21:00 +27°C° 0 mm 2 mps 756 mmHg 32%
22:00 +26°C° 0 mm 2 mps 756 mmHg 34%
23:00 +25°C° 0 mm 2 mps 756 mmHg 36%

29 July, Thursday

Time Temperature Precipitation Wind Pressure Humidity
00:00 +24°C° 0 mm 2 mps 756 mmHg 38%
01:00 +23°C° 0 mm 2 mps 756 mmHg 42%
02:00 +23°C° 0 mm 2 mps 756 mmHg 46%
03:00 +21°C° 0 mm 3 mps 755 mmHg 49%
04:00 +21°C° 0 mm 2 mps 756 mmHg 51%
05:00 +21°C° 0 mm 2 mps 756 mmHg 52%
06:00 +21°C° 0 mm 2 mps 756 mmHg 53%
07:00 +25°C° 0 mm 2 mps 756 mmHg 47%
08:00 +27°C° 0 mm 1 mps 756 mmHg 40%
09:00 +30°C° 0 mm 1 mps 756 mmHg 33%
10:00 +31°C° 0 mm 2 mps 756 mmHg 29%
11:00 +32°C° 0 mm 2 mps 755 mmHg 25%
12:00 +35°C° 0 mm 2 mps 755 mmHg 21%
13:00 +35°C° 0 mm 2 mps 755 mmHg 21%
14:00 +35°C° 0 mm 2 mps 754 mmHg 20%
15:00 +36°C° 0 mm 2 mps 754 mmHg 19%
16:00 +36°C° 0 mm 2 mps 754 mmHg 20%
17:00 +35°C° 0 mm 2 mps 754 mmHg 21%
18:00 +35°C° 0 mm 2 mps 754 mmHg 21%
19:00 +32°C° 0 mm 2 mps 754 mmHg 24%
20:00 +30°C° 0 mm 2 mps 754 mmHg 26%
21:00 +28°C° 0 mm 1 mps 754 mmHg 28%
22:00 +27°C° 0 mm 1 mps 754 mmHg 29%
23:00 +27°C° 0 mm 1 mps 753 mmHg 29%

30 July, Friday

Time Temperature Precipitation Wind Pressure Humidity
00:00 +27°C° 0 mm 1 mps 753 mmHg 30%
01:00 +26°C° 0 mm 1 mps 753 mmHg 31%
02:00 +25°C° 0 mm 1 mps 754 mmHg 33%
03:00 +24°C° 0 mm 1 mps 754 mmHg 35%
04:00 +25°C° 0 mm 1 mps 754 mmHg 36%
05:00 +25°C° 0 mm 1 mps 754 mmHg 36%
06:00 +24°C° 0 mm 0 mps 754 mmHg 37%
07:00 +28°C° 0 mm 1 mps 754 mmHg 33%
08:00 +30°C° 0 mm 1 mps 754 mmHg 29%
09:00 +33°C° 0 mm 1 mps 754 mmHg 24%
10:00 +35°C° 0 mm 2 mps 754 mmHg 23%
11:00 +36°C° 0 mm 2 mps 754 mmHg 21%
12:00 +37°C° 0 mm 2 mps 753 mmHg 19%
13:00 +37°C° 0 mm 2 mps 753 mmHg 19%
14:00 +38°C° 0 mm 2 mps 753 mmHg 18%
15:00 +38°C° 0 mm 2 mps 753 mmHg 17%
16:00 +38°C° 0 mm 2 mps 752 mmHg 18%
17:00 +37°C° 0 mm 2 mps 752 mmHg 19%
18:00 +37°C° 0 mm 2 mps 752 mmHg 19%
19:00 +34°C° 0 mm 1 mps 752 mmHg 22%
20:00 +32°C° 0 mm 1 mps 752 mmHg 24%
21:00 +29°C° 0 mm 1 mps 752 mmHg 27%
22:00 +29°C° 0 mm 1 mps 752 mmHg 28%
23:00 +28°C° 0 mm 2 mps 752 mmHg 28%

31 July, Saturday

Time Temperature Precipitation Wind Pressure Humidity
00:00 +27°C° 0 mm 2 mps 753 mmHg 29%
01:00 +27°C° 0 mm 2 mps 753 mmHg 30%
02:00 +26°C° 0 mm 2 mps 753 mmHg 31%
03:00 +25°C° 0 mm 2 mps 753 mmHg 32%
04:00 +25°C° 0 mm 2 mps 753 mmHg 35%
05:00 +26°C° 0 mm 2 mps 753 mmHg 38%
06:00 +26°C° 0 mm 1 mps 753 mmHg 41%
07:00 +28°C° 0 mm 2 mps 753 mmHg 36%
08:00 +30°C° 0 mm 2 mps 753 mmHg 32%
09:00 +34°C° 0 mm 3 mps 753 mmHg 27%
10:00 +35°C° 0 mm 3 mps 753 mmHg 24%
11:00 +36°C° 0 mm 3 mps 752 mmHg 22%
12:00 +38°C° 0 mm 4 mps 752 mmHg 19%
13:00 +38°C° 0 mm 4 mps 752 mmHg 17%
14:00 +38°C° 0 mm 4 mps 752 mmHg 16%
15:00 +40°C° 0 mm 4 mps 751 mmHg 15%
16:00 +38°C° 0 mm 4 mps 751 mmHg 15%
17:00 +38°C° 0 mm 4 mps 751 mmHg 15%
18:00 +37°C° 0 mm 3 mps 751 mmHg 15%
19:00 +35°C° 0 mm 3 mps 751 mmHg 17%
20:00 +32°C° 0 mm 2 mps 751 mmHg 18%
21:00 +29°C° 0 mm 1 mps 751 mmHg 20%
22:00 +29°C° 0 mm 1 mps 751 mmHg 21%
23:00 +28°C° 0 mm 1 mps 751 mmHg 21%
Show more